Tiempo cada hora Dachnyy

Hoy, 4 Agosto, Miércoles

Tiempo Temperatura Precipitaciones Viento Presión Humedad
00:00 +19°C° 0.2 mm 1 mps 739 mmHg 85%
01:00 +19°C° 0.2 mm 1 mps 739 mmHg 88%
02:00 +18°C° 0 mm 1 mps 739 mmHg 90%
03:00 +18°C° 0 mm 1 mps 739 mmHg 91%
04:00 +19°C° 0 mm 1 mps 739 mmHg 94%
05:00 +20°C° 0 mm 1 mps 739 mmHg 91%
06:00 +22°C° 0 mm 1 mps 739 mmHg 88%
07:00 +23°C° 0 mm 1 mps 739 mmHg 85%
08:00 +25°C° 0 mm 1 mps 738 mmHg 75%
09:00 +27°C° 0 mm 2 mps 738 mmHg 64%
10:00 +29°C° 0 mm 2 mps 738 mmHg 54%
11:00 +30°C° 0 mm 2 mps 738 mmHg 49%
12:00 +31°C° 0 mm 2 mps 738 mmHg 44%
13:00 +34°C° 0 mm 3 mps 738 mmHg 40%
14:00 +31°C° 0 mm 3 mps 738 mmHg 46%
15:00 +29°C° 0 mm 2 mps 738 mmHg 53%
16:00 +28°C° 0 mm 2 mps 737 mmHg 60%
17:00 +27°C° 0 mm 2 mps 737 mmHg 64%
18:00 +27°C° 0 mm 2 mps 737 mmHg 69%
19:00 +26°C° 0 mm 1 mps 737 mmHg 73%
20:00 +25°C° 0 mm 1 mps 737 mmHg 77%
21:00 +23°C° 0 mm 1 mps 737 mmHg 82%
22:00 +22°C° 0 mm 1 mps 737 mmHg 86%
23:00 +22°C° 0 mm 1 mps 737 mmHg 87%

Mañana, 5 Agosto, Jueves

Tiempo Temperatura Precipitaciones Viento Presión Humedad
00:00 +21°C° 0 mm 1 mps 736 mmHg 89%
01:00 +21°C° 0 mm 1 mps 736 mmHg 90%
02:00 +20°C° 0 mm 1 mps 736 mmHg 91%
03:00 +20°C° 0 mm 1 mps 736 mmHg 92%
04:00 +20°C° 0 mm 1 mps 737 mmHg 92%
05:00 +21°C° 0 mm 1 mps 737 mmHg 88%
06:00 +22°C° 0 mm 1 mps 737 mmHg 83%
07:00 +23°C° 0 mm 2 mps 736 mmHg 78%
08:00 +25°C° 0 mm 2 mps 736 mmHg 69%
09:00 +27°C° 0 mm 1 mps 736 mmHg 59%
10:00 +29°C° 0 mm 1 mps 736 mmHg 50%
11:00 +29°C° 0 mm 1 mps 736 mmHg 50%
12:00 +29°C° 0 mm 1 mps 736 mmHg 50%
13:00 +30°C° 0 mm 2 mps 736 mmHg 50%
14:00 +30°C° 0 mm 2 mps 735 mmHg 50%
15:00 +30°C° 0 mm 3 mps 735 mmHg 50%
16:00 +30°C° 0 mm 3 mps 735 mmHg 49%
17:00 +27°C° 1 mm 3 mps 735 mmHg 62%
18:00 +25°C° 1 mm 2 mps 735 mmHg 75%
19:00 +21°C° 1 mm 2 mps 735 mmHg 87%
20:00 +20°C° 0.5 mm 2 mps 735 mmHg 90%
21:00 +19°C° 0.5 mm 2 mps 735 mmHg 94%
22:00 +18°C° 0.5 mm 2 mps 736 mmHg 97%
23:00 +17°C° 0 mm 2 mps 735 mmHg 96%

Pasado mañana, 6 Agosto, Viernes

Tiempo Temperatura Precipitaciones Viento Presión Humedad
00:00 +17°C° 0 mm 2 mps 735 mmHg 96%
01:00 +17°C° 0 mm 2 mps 735 mmHg 95%
02:00 +17°C° 0.1 mm 3 mps 735 mmHg 95%
03:00 +17°C° 0.1 mm 3 mps 736 mmHg 95%
04:00 +17°C° 0.1 mm 3 mps 736 mmHg 95%
05:00 +17°C° 0.1 mm 3 mps 736 mmHg 95%
06:00 +17°C° 0.1 mm 3 mps 736 mmHg 95%
07:00 +16°C° 0.1 mm 3 mps 736 mmHg 95%
08:00 +17°C° 0.1 mm 3 mps 736 mmHg 94%
09:00 +17°C° 0.1 mm 2 mps 737 mmHg 93%
10:00 +17°C° 0.1 mm 2 mps 737 mmHg 92%
11:00 +18°C° 0 mm 2 mps 737 mmHg 85%
12:00 +18°C° 0 mm 2 mps 737 mmHg 79%
13:00 +19°C° 0 mm 2 mps 738 mmHg 73%
14:00 +19°C° 0.1 mm 2 mps 738 mmHg 76%
15:00 +20°C° 0.1 mm 1 mps 738 mmHg 79%
16:00 +20°C° 0.1 mm 1 mps 738 mmHg 82%
17:00 +19°C° 0 mm 1 mps 738 mmHg 81%
18:00 +19°C° 0 mm 1 mps 738 mmHg 81%
19:00 +18°C° 0 mm 2 mps 738 mmHg 80%
20:00 +18°C° 0 mm 1 mps 738 mmHg 83%
21:00 +18°C° 0 mm 1 mps 738 mmHg 86%
22:00 +16°C° 0 mm 1 mps 738 mmHg 89%
23:00 +16°C° 0 mm 1 mps 738 mmHg 87%

7 Agosto, Sábado

Tiempo Temperatura Precipitaciones Viento Presión Humedad
00:00 +15°C° 0 mm 1 mps 738 mmHg 85%
01:00 +15°C° 0 mm 1 mps 738 mmHg 84%
02:00 +14°C° 0 mm 2 mps 738 mmHg 86%
03:00 +13°C° 0 mm 2 mps 738 mmHg 88%
04:00 +12°C° 0 mm 2 mps 738 mmHg 90%
05:00 +13°C° 0 mm 2 mps 738 mmHg 86%
06:00 +13°C° 0 mm 3 mps 738 mmHg 81%
07:00 +14°C° 0 mm 3 mps 738 mmHg 76%
08:00 +17°C° 0 mm 3 mps 738 mmHg 71%
09:00 +18°C° 0 mm 3 mps 738 mmHg 66%
10:00 +19°C° 0 mm 3 mps 737 mmHg 60%
11:00 +19°C° 0 mm 3 mps 737 mmHg 62%
12:00 +19°C° 0 mm 4 mps 738 mmHg 63%
13:00 +19°C° 0 mm 4 mps 738 mmHg 64%
14:00 +18°C° 0 mm 4 mps 738 mmHg 67%
15:00 +17°C° 0 mm 4 mps 738 mmHg 70%
16:00 +15°C° 0 mm 4 mps 738 mmHg 73%
17:00 +15°C° 0 mm 4 mps 738 mmHg 76%
18:00 +14°C° 0 mm 3 mps 738 mmHg 80%
19:00 +13°C° 0 mm 3 mps 738 mmHg 83%
20:00 +13°C° 0.2 mm 3 mps 738 mmHg 86%
21:00 +13°C° 0.2 mm 3 mps 738 mmHg 90%
22:00 +14°C° 0.2 mm 2 mps 738 mmHg 93%
23:00 +14°C° 0.2 mm 2 mps 738 mmHg 94%

8 Agosto, Domingo

Tiempo Temperatura Precipitaciones Viento Presión Humedad
00:00 +13°C° 0.2 mm 3 mps 738 mmHg 95%
01:00 +13°C° 0.2 mm 3 mps 739 mmHg 97%
02:00 +14°C° 0.1 mm 3 mps 739 mmHg 97%
03:00 +14°C° 0.1 mm 3 mps 739 mmHg 98%
04:00 +14°C° 0.1 mm 3 mps 739 mmHg 98%
05:00 +14°C° 0.3 mm 3 mps 740 mmHg 98%
06:00 +14°C° 0.3 mm 3 mps 740 mmHg 98%
07:00 +16°C° 0.3 mm 3 mps 740 mmHg 98%
08:00 +16°C° 0 mm 3 mps 741 mmHg 97%
09:00 +16°C° 0 mm 3 mps 741 mmHg 97%
10:00 +16°C° 0 mm 3 mps 742 mmHg 96%
11:00 +17°C° 0 mm 3 mps 742 mmHg 92%
12:00 +18°C° 0 mm 3 mps 742 mmHg 89%
13:00 +18°C° 0 mm 3 mps 742 mmHg 85%
14:00 +19°C° 0 mm 3 mps 742 mmHg 79%
15:00 +20°C° 0 mm 3 mps 743 mmHg 74%
16:00 +21°C° 0 mm 3 mps 743 mmHg 68%
17:00 +21°C° 0.1 mm 2 mps 743 mmHg 74%
18:00 +20°C° 0.1 mm 2 mps 742 mmHg 79%
19:00 +19°C° 0.1 mm 2 mps 742 mmHg 85%
20:00 +18°C° 0 mm 2 mps 742 mmHg 88%
21:00 +16°C° 0 mm 2 mps 743 mmHg 92%
22:00 +15°C° 0 mm 1 mps 743 mmHg 96%
23:00 +15°C° 0 mm 1 mps 743 mmHg 95%

9 Agosto, Lunes

Tiempo Temperatura Precipitaciones Viento Presión Humedad
00:00 +15°C° 0 mm 1 mps 743 mmHg 94%
01:00 +15°C° 0 mm 1 mps 743 mmHg 93%
02:00 +14°C° 0 mm 1 mps 743 mmHg 93%
03:00 +14°C° 0 mm 1 mps 743 mmHg 93%
04:00 +14°C° 0 mm 1 mps 742 mmHg 93%
05:00 +14°C° 0 mm 2 mps 742 mmHg 87%
06:00 +14°C° 0 mm 2 mps 742 mmHg 82%
07:00 +15°C° 0 mm 2 mps 742 mmHg 76%
08:00 +16°C° 0 mm 3 mps 742 mmHg 67%
09:00 +17°C° 0 mm 3 mps 742 mmHg 57%
10:00 +19°C° 0 mm 3 mps 742 mmHg 48%
11:00 +20°C° 0 mm 3 mps 742 mmHg 47%
12:00 +20°C° 0 mm 4 mps 742 mmHg 46%
13:00 +21°C° 0 mm 4 mps 742 mmHg 45%
14:00 +20°C° 0 mm 4 mps 742 mmHg 50%
15:00 +19°C° 0 mm 3 mps 742 mmHg 55%
16:00 +18°C° 0 mm 3 mps 742 mmHg 60%
17:00 +17°C° 0.1 mm 3 mps 742 mmHg 66%
18:00 +14°C° 0.1 mm 3 mps 742 mmHg 73%
19:00 +13°C° 0.1 mm 3 mps 742 mmHg 79%
20:00 +14°C° 0 mm 2 mps 742 mmHg 82%
21:00 +13°C° 0 mm 2 mps 742 mmHg 85%
22:00 +12°C° 0 mm 1 mps 742 mmHg 88%
23:00 +12°C° 0 mm 1 mps 742 mmHg 88%
Mostrar más

Necesitamos Su Consentimiento

Meteoprog y nuestros Proveedores de Servicios pueden almacenar y acceder a sus datos personales como cookies, identificadores de dispositivo u otras tecnologías similares de su dispositivo y procesar dichos datos para personalizar contenido y anuncios, además de ofrecer funciones de redes sociales y analizar el tráfico.

  • Almacenar y/o acceder a información en su dispositivo

    Se puede almacenar o acceder a cookies, identificadores de dispositivo u otra información de su dispositivo para los fines anteriormente indicados.

  • Anuncios y contenido personalizados, medición de anuncios y contenido, percepciones del público, y desarrollo de productos

    Los anuncios y el contenido pueden personalizarse en base a su perfil. Se pueden añadir más datos para personalizar mejor los anuncios y contenidos. Se puede medir el rendimiento de los anuncios y contenidos. Se puede obtener la percepción sobre el público que ha visto los anuncios y contenidos. Dichos datos pueden usarse para desarrollar o mejorar la experiencia del usuario, sistemas y software.

Al hacer clic en ‘Estoy De Acuerdo’ usted permitirá el uso de las cookies, identificadores de dispositivo, balizas web u otras tecnologías similares indicadas. Su configuración puede cambiarse desde el navegador de su dispositivo.

Para ciertos fines, los intereses legítimos pueden ser considerados por encima del consentimiento. Puede leer más sobre ello en nuestra Política de Privacidad y Cookies.